#timestamp,LO_Frequency,Hit,StdDev 
1551232815.8,286047000.4,N
1551232835.6,286046998.4,N
1551232855.5,286046999.4,N
1551232875.3,286046996.6,N
1551232895.2,286046996.8,N
1551232915.9,286046999.7,N
1551232935.7,286046999.8,N
1551232955.6,286046999.9,N
1551232975.4,286047001.8,N
1551232995.3,286047003.5,N
1551233015.1,286047002.1,N
1551233016.0,286047002.1,N
1551233035.8,286047004.0,N
1551233055.7,286047000.2,N
1551233075.5,286047000.0,N
1551233095.3,286047000.1,N
1551233115.2,286047003.6,N
1551233135.0,286047003.7,N
1551233135.9,286047003.7,N
1551233155.8,286046999.8,N
1551233175.6,286046998.4,N
1551233195.4,286046999.1,N
1551233215.3,286046999.4,N
1551233235.1,286046999.4,N
1551233255.9,286047001.1,N
1551233275.7,286047002.8,N
1551233295.6,286047005.7,N
1551233315.4,286047001.5,N
1551233335.2,286046998.1,N
1551233355.1,286046998.1,N
1551233356.0,286046998.1,N
1551233375.8,286047001.2,N
1551233395.6,286047000.5,N
1551233415.5,286047000.6,N
1551233435.3,286047001.1,N
1551233455.2,286046998.5,N
1551233475.9,286046998.3,N
1551233495.7,286047000.8,N
1551233515.6,286047002.3,N
1551233535.4,286047004.8,N
1551233585.3,286047004.1,E
1551233595.2,286046998.6,N
1551233615.0,286046994.9,P
1551233615.9,286046994.9,N
1551233635.8,286046996.4,N
1551233655.6,286046993.3,Y
1551233675.5,286046996.9,P
1551233695.3,286046999.0,N
1551233715.1,286046998.3,N
1551233735.9,286046998.2,N
1551233755.7,286046999.9,N
1551233775.6,286047004.2,Y
1551233795.4,286047005.5,P
1551233815.2,286047005.9,N
1551233835.1,286047005.4,N
1551233836.0,286047005.4,N
1551233855.8,286047006.1,N
1551233875.7,286047007.3,N
1551233895.5,286047006.4,N
1551233915.3,286047006.5,N
1551233935.2,286047007.6,N
1551233955.9,286047010.3,Y
1551233975.7,286047002.2,P
1551233995.6,286046998.4,N
1551234015.4,286046996.7,N
1551234035.3,286046997.5,N
1551234055.1,286047001.2,N
1551234056.0,286047001.2,N
1551234075.8,286047001.0,N
1551234095.7,286046999.8,N
1551234115.5,286047002.4,N
1551234135.4,286046998.1,N
1551234155.2,286046998.4,N
1551234175.0,286046998.1,N
1551234175.9,286046998.1,N
1551234195.8,286047000.8,N
1551234215.6,286046998.5,N
1551234235.4,286046998.8,N
1551234255.3,286047000.8,N
1551234275.1,286047000.4,N
1551234295.9,286047000.4,N
1551234315.7,286047001.2,N
1551234335.5,286046998.9,N
1551234355.4,286046997.2,N
1551234375.2,286046999.6,N
1551234395.1,286046999.0,N
1551234396.0,286046999.0,N
1551234415.8,286046997.5,N
1551234435.6,286046996.9,N
1551234455.5,286046999.0,N
1551234475.3,286046998.9,N
1551234495.2,286046998.3,N
1551234515.9,286046996.7,N
1551234535.7,286046997.8,N
1551234555.6,286046997.8,N
1551234575.4,286046996.9,N
1551234595.2,286046998.2,N
1551234615.1,286046997.3,N
1551234616.0,286046997.3,N
1551234635.8,286046998.0,N
1551234655.7,286046997.3,N
1551234675.5,286046999.4,N
1551234695.3,286046999.7,N
1551234715.2,286047002.7,N
1551234735.0,286047000.3,N
1551234735.9,286047000.3,N
1551234755.8,286046998.5,N
1551234775.6,286047002.5,N
1551234795.4,286047000.1,N
1551234815.3,286047001.8,N
1551234835.1,286047000.2,N
1551234855.8,286046998.2,N
1551234875.7,286047001.2,N
1551234895.5,286046999.1,N
1551234915.4,286047000.7,N
1551234935.2,286046998.3,N
1551234955.0,286046998.6,N
1551234955.9,286046998.6,N
1551234975.8,286047002.3,N
1551234995.6,286047001.2,N
1551235015.4,286046998.3,N
1551235035.3,286046999.8,N
1551235055.1,286047000.3,N
1551235075.9,286047001.1,N
1551235095.7,286047004.3,N
1551235115.5,286047005.9,Y
1551235135.4,286047003.0,P
1551235155.2,286047003.7,N
1551235175.1,286047002.0,N
1551235176.0,286047002.0,N
1551235195.8,286047000.2,N
1551235215.6,286047000.4,N
1551235235.5,286047000.0,N
1551235255.3,286047002.8,N
1551235275.1,286047000.1,N
1551235295.9,286047001.7,N
1551235315.7,286046998.2,N
1551235335.6,286046999.6,N
1551235355.4,286046999.2,N
1551235375.2,286046998.1,N
1551235395.1,286046999.9,N
1551235396.0,286046999.9,N
1551235415.8,286047002.3,N
1551235435.6,286047001.0,N
1551235455.5,286046999.1,N
1551235475.3,286046999.6,N
1551235495.2,286046999.3,N
1551235515.9,286046997.0,N
1551235535.7,286046996.5,N
1551235555.6,286046998.3,N
1551235575.4,286046998.8,N
1551235595.2,286046997.4,N
1551235615.1,286046999.2,N
1551235616.0,286046999.2,N
1551235635.8,286046999.0,N
1551235655.7,286046998.2,N
1551235675.5,286046998.6,N
1551235695.3,286047000.3,N
1551235715.2,286047001.0,N
1551235735.0,286046999.5,N
1551235735.9,286046999.5,N
1551235755.8,286046999.2,N
1551235775.6,286046999.1,N
1551235795.4,286046996.6,N
1551235815.3,286046998.5,N
1551235835.1,286046999.3,N
1551235855.8,286046999.5,N
1551235875.7,286046998.4,N
1551235895.5,286046998.8,N
1551235915.4,286046998.6,N
1551235935.2,286046998.7,N
1551235955.0,286046999.7,N
1551235955.9,286046999.7,N
1551235975.8,286047000.5,N
1551235995.6,286046998.4,N
1551236015.4,286046998.6,N
1551236035.3,286047000.0,N
1551236055.1,286047001.8,N
1551236075.9,286046999.7,N
1551236095.7,286047000.1,N
1551236115.5,286047000.8,N
1551236135.4,286046998.1,N
1551236155.2,286046999.2,N
1551236175.0,286046999.2,N
1551236175.9,286046999.2,N
1551236195.8,286046996.7,Y
1551236215.6,286046998.1,P
1551236235.5,286046998.5,N
1551236255.3,286046996.5,P
1551236275.1,286046998.5,N
1551236295.9,286046996.8,Y
1551236315.7,286046998.2,P
1551236335.5,286046998.1,P
1551236355.4,286047002.4,P
1551236375.2,286047001.4,N
1551236395.1,286047005.6,N
1551236426.0,286047003.0,E
